FW6620 Weather Reports


time (UTC)temp
C
wind
direction
speed
KPH
gust
KPH
rain 1hr
cm
rain 24hr
cm
rain mn
cm
humidity
%
barometer
mb
20260831194045 35 56 1.6 6.4 0.00 0.00 0.00 49 1016.0
20260831193545 35 0 0.0 4.8 0.00 0.00 0.00 50 1016.0
20260831193059 35 0 0.0 4.8 0.00 0.00 0.00 51 1016.1
20260831192545 35 67 1.6 11.3 0.00 0.00 0.00 52 1016.2
20260831192045 35 0 0.0 11.3 0.00 0.00 0.00 49 1016.2
20260831191556 35 64 1.6 11.3 0.00 0.00 0.00 51 1016.4
20260831191044 35 66 0.0 6.4 0.00 0.00 0.00 53 1016.4
20260831190548 35 66 1.6 6.4 0.00 0.00 0.00 52 1016.4
20260831185545 35 0 1.6 9.7 0.00 0.00 0.00 53 1016.6
20260831185044 35 56 1.6 12.9 0.00 0.00 0.00 53 1016.7
20260831184557 35 0 3.2 12.9 0.00 0.00 0.00 54 1016.8
20260831184045 35 55 3.2 12.9 0.00 0.00 0.00 54 1016.9
20260831183548 35 62 0.0 6.4 0.00 0.00 0.00 57 1016.9
20260831183058 34 0 0.0 9.7 0.00 0.00 0.00 55 1016.9
20260831182546 34 62 1.6 11.3 0.00 0.00 0.00 56 1016.9
20260831182047 34 64 1.6 11.3 0.00 0.00 0.00 54 1016.9
20260831181556 34 73 0.0 4.8 0.00 0.00 0.00 57 1016.9
20260831181050 34 63 0.0 4.8 0.00 0.00 0.00 57 1017.0
20260831180546 34 61 0.0 6.4 0.00 0.00 0.00 57 1017.1
20260831180056 33 70 0.0 6.4 0.00 0.00 0.00 60 1017.3
20260831175547 33 187 1.6 6.4 0.00 0.00 0.00 60 1017.3
20260831175048 33 62 0.0 6.4 0.00 0.00 0.00 59 1017.4
20260831174601 33 62 1.6 11.3 0.00 0.00 0.00 62 1017.5
20260831174050 33 0 1.6 11.3 0.00 0.00 0.00 60 1017.5
20260831173546 33 66 0.0 11.3 0.00 0.00 0.00 63 1017.5
20260831173057 33 56 3.2 11.3 0.00 0.00 0.00 61 1017.7
20260831172546 33 61 1.6 6.4 0.00 0.00 0.00 63 1017.7
20260831172046 32 61 0.0 11.3 0.00 0.00 0.00 65 1017.8
20260831171559 32 62 0.0 11.3 0.00 0.00 0.00 63 1017.8
20260831171047 32 61 1.6 11.3 0.00 0.00 0.00 64 1017.8
20260831170546 32 66 0.0 4.8 0.00 0.00 0.00 63 1017.7
20260831170052 32 0 0.0 4.8 0.00 0.00 0.00 66 1017.8
20260831165549 32 0 0.0 9.7 0.00 0.00 0.00 67 1017.9
20260831165046 32 66 0.0 9.7 0.00 0.00 0.00 67 1018.0
20260831164600 32 0 1.6 9.7 0.00 0.00 0.00 67 1017.9
20260831164046 31 58 1.6 9.7 0.00 0.00 0.00 69 1017.9
20260831163546 31 58 0.0 4.8 0.00 0.00 0.00 71 1017.9
20260831163057 31 0 1.6 9.7 0.00 0.00 0.00 71 1018.0
20260831162547 30 0 0.0 9.7 0.00 0.00 0.00 71 1017.9
20260831162050 30 0 1.6 9.7 0.00 0.00 0.00 72 1018.0
20260831161605 30 66 0.0 4.8 0.00 0.00 0.00 73 1018.0
20260831161047 30 0 0.0 6.4 0.00 0.00 0.00 73 1017.9
20260831160546 30 0 0.0 6.4 0.00 0.00 0.00 72 1018.0
20260831160051 30 67 1.6 6.4 0.00 0.00 0.00 72 1017.9
20260831155547 30 67 0.0 6.4 0.00 0.00 0.00 74 1017.9
20260831155047 30 68 0.0 4.8 0.00 0.00 0.00 75 1017.8
20260831154629 30 0 1.6 4.8 0.00 0.00 0.00 75 1017.8
20260831154047 29 68 1.6 4.8 0.00 0.00 0.00 76 1017.9
20260831153546 29 58 0.0 9.7 0.00 0.00 0.00 77 1017.9
20260831153116 28 58 1.6 9.7 0.00 0.00 0.00 78 1017.8
20260831152547 28 0 0.0 6.4 0.00 0.00 0.00 78 1017.8
20260831152046 28 55 1.6 9.7 0.00 0.00 0.00 78 1017.8
20260831151601 28 0 1.6 9.7 0.00 0.00 0.00 79 1017.8
20260831151046 28 53 3.2 14.5 0.00 0.00 0.00 77 1017.7
20260831150547 28 62 3.2 14.5 0.00 0.00 0.00 78 1017.7
20260831145549 28 0 1.6 6.4 0.00 0.00 0.00 81 1017.8
20260831145046 28 60 0.0 6.4 0.00 0.00 0.00 82 1017.6
20260831144644 28 60 0.0 6.4 0.00 0.00 0.00 83 1017.6
20260831144046 28 60 1.6 6.4 0.00 0.00 0.00 84 1017.5
20260831143550 27 0 0.0 6.4 0.00 0.00 0.00 85 1017.6
20260831143100 27 57 0.0 6.4 0.00 0.00 0.00 86 1017.5
20260831142549 27 0 1.6 6.4 0.00 0.00 0.00 87 1017.4
20260831142046 27 0 0.0 4.8 0.00 0.00 0.00 87 1017.5
20260831141557 27 0 0.0 9.7 0.00 0.00 0.00 87 1017.5
20260831141043 27 0 0.0 9.7 0.00 0.00 0.00 88 1017.4
20260831140546 27 0 0.0 4.8 0.00 0.00 0.00 89 1017.4
20260831140052 26 0 1.6 4.8 0.00 0.00 0.00 89 1017.3
20260831135547 26 0 0.0 4.8 0.00 0.00 0.00 91 1017.2
20260831135047 26 0 0.0 4.8 0.00 0.00 0.00 90 1017.3
20260831134601 26 0 0.0 1.6 0.00 0.00 0.00 91 1017.3
20260831134047 26 0 0.0 1.6 0.00 0.00 0.00 92 1017.2
20260831133546 26 0 0.0 3.2 0.00 0.00 0.00 92 1017.2
20260831133103 26 0 0.0 4.8 0.00 0.00 0.00 92 1017.1
20260831132546 26 0 0.0 4.8 0.00 0.00 0.00 92 1017.1
20260831132046 26 0 0.0 4.8 0.00 0.00 0.00 92 1017.1
20260831131604 25 58 0.0 4.8 0.00 0.00 0.00 92 1016.9
20260831131046 25 0 0.0 4.8 0.00 0.00 0.00 92 1017.0
20260831130545 25 58 0.0 3.2 0.00 0.00 0.00 93 1016.9
20260831130109 25 0 0.0 0.0 0.00 0.00 0.00 92 1016.8
20260831125546 25 0 0.0 0.0 0.00 0.00 0.00 91 1016.8
20260831125046 25 0 0.0 0.0 0.00 0.00 0.00 92 1016.6
20260831124603 25 0 0.0 0.0 0.00 0.00 0.00 92 1016.6
20260831124046 25 0 0.0 0.0 0.00 0.00 0.00 92 1016.6
20260831123546 25 0 0.0 0.0 0.00 0.00 0.00 92 1016.6
20260831123100 25 0 0.0 0.0 0.00 0.00 0.00 92 1016.5
20260831122546 25 0 0.0 0.0 0.00 0.00 0.00 91 1016.4
20260831122046 25 0 0.0 0.0 0.00 0.00 0.00 91 1016.6
20260831121558 25 0 0.0 0.0 0.00 0.00 0.00 91 1016.6
20260831121044 26 0 0.0 0.0 0.00 0.00 0.00 91 1016.5
20260831120547 26 0 0.0 0.0 0.00 0.00 0.00 91 1016.5
20260831120049 26 0 0.0 0.0 0.00 0.00 0.00 91 1016.4
20260831115545 26 0 0.0 0.0 0.00 0.00 0.00 91 1016.4
20260831115046 26 0 0.0 0.0 0.00 0.00 0.00 91 1016.3
20260831114601 26 0 0.0 3.2 0.00 0.00 0.00 91 1016.4
20260831114046 26 0 0.0 3.2 0.00 0.00 0.00 91 1016.5
20260831113547 26 0 0.0 3.2 0.00 0.00 0.00 91 1016.5
20260831113105 26 0 0.0 3.2 0.00 0.00 0.00 90 1016.5
20260831112547 26 0 0.0 3.2 0.00 0.00 0.00 90 1016.6
20260831112046 26 0 0.0 1.6 0.00 0.00 0.00 90 1016.5
20260831111557 26 0 0.0 1.6 0.00 0.00 0.00 90 1016.4
20260831111046 26 0 0.0 3.2 0.00 0.00 0.00 90 1016.3
20260831110546 26 0 0.0 3.2 0.00 0.00 0.00 90 1016.4
20260831110059 26 0 0.0 3.2 0.00 0.00 0.00 90 1016.4
20260831105546 26 0 0.0 1.6 0.00 0.00 0.00 90 1016.4
20260831105046 26 58 0.0 0.0 0.00 0.00 0.00 90 1016.3
20260831104603 26 0 0.0 0.0 0.00 0.00 0.00 90 1016.3
20260831104047 26 0 0.0 0.0 0.00 0.00 0.00 90 1016.3
20260831103546 26 0 0.0 1.6 0.00 0.00 0.00 90 1016.3
20260831103056 26 0 0.0 1.6 0.00 0.00 0.00 90 1016.3
20260831102546 26 0 0.0 1.6 0.00 0.00 0.00 90 1016.3
20260831102046 26 0 0.0 1.6 0.00 0.00 0.00 89 1016.3
20260831101556 26 0 0.0 4.8 0.00 0.00 0.00 89 1016.3
20260831101046 26 0 0.0 4.8 0.00 0.00 0.00 89 1016.3
20260831100547 26 59 0.0 1.6 0.00 0.00 0.00 89 1016.4
20260831100119 26 0 0.0 4.8 0.00 0.00 0.00 89 1016.3
20260831095546 26 0 0.0 4.8 0.00 0.00 0.00 89 1016.3
20260831095047 26 0 0.0 4.8 0.00 0.00 0.00 89 1016.4
20260831094558 26 0 0.0 4.8 0.00 0.00 0.00 88 1016.4
20260831094047 26 0 0.0 4.8 0.00 0.00 0.00 88 1016.3
20260831093547 26 0 0.0 4.8 0.00 0.00 0.00 88 1016.4
20260831093058 26 0 0.0 6.4 0.00 0.00 0.00 88 1016.3
20260831092549 26 0 0.0 6.4 0.00 0.00 0.00 88 1016.3
20260831092046 26 64 0.0 9.7 0.00 0.00 0.00 88 1016.1
20260831091605 26 0 0.0 9.7 0.00 0.00 0.00 88 1016.1
20260831091046 26 62 0.0 3.2 0.00 0.00 0.00 88 1016.1
20260831090546 26 0 0.0 4.8 0.00 0.00 0.00 88 1016.1
20260831090059 26 0 0.0 9.7 0.00 0.00 0.00 88 1016.2
20260831085546 26 0 0.0 9.7 0.00 0.00 0.00 87 1016.1
20260831085047 26 62 0.0 4.8 0.00 0.00 0.00 87 1016.1
20260831084636 26 0 0.0 1.6 0.00 0.00 0.00 87 1016.2
20260831084046 26 0 0.0 4.8 0.00 0.00 0.00 87 1016.1
20260831083546 26 0 1.6 11.3 0.00 0.00 0.00 87 1016.2
20260831083058 26 57 0.0 11.3 0.00 0.00 0.00 87 1016.3
20260831082546 26 60 1.6 11.3 0.00 0.00 0.00 86 1016.3
20260831082046 27 0 0.0 9.7 0.00 0.00 0.00 86 1016.4
20260831081604 26 0 1.6 12.9 0.00 0.00 0.00 86 1016.4
20260831081046 26 0 0.0 12.9 0.00 0.00 0.00 86 1016.3
20260831080549 27 51 0.0 4.8 0.00 0.00 0.00 85 1016.4
20260831080120 27 64 1.6 6.4 0.00 0.00 0.00 85 1016.4
20260831075545 27 60 0.0 6.4 0.00 0.00 0.00 86 1016.4
20260831075046 27 70 0.0 6.4 0.00 0.00 0.00 85 1016.4
20260831074606 27 0 1.6 9.7 0.00 0.00 0.00 84 1016.4
20260831074046 27 75 0.0 9.7 0.00 0.00 0.00 84 1016.5
20260831073546 27 70 0.0 9.7 0.00 0.00 0.00 83 1016.4
20260831073055 27 0 1.6 11.3 0.00 0.00 0.00 83 1016.3
20260831072548 27 70 0.0 11.3 0.00 0.00 0.00 82 1016.3
20260831072045 27 0 1.6 9.7 0.00 0.00 0.00 82 1016.3
20260831071611 27 0 1.6 9.7 0.00 0.00 0.00 82 1016.3
20260831071046 27 66 0.0 11.3 0.00 0.00 0.00 81 1016.3
20260831070547 27 75 1.6 11.3 0.00 0.00 0.00 81 1016.4
20260831070100 27 62 3.2 12.9 0.00 0.00 0.00 80 1016.5
20260831065545 27 100 1.6 12.9 0.00 0.00 0.00 79 1016.5
20260831065046 27 74 1.6 14.5 0.00 0.00 0.00 78 1016.6
20260831064553 28 60 3.2 14.5 0.00 0.00 0.00 78 1016.4
20260831064045 28 66 0.0 6.4 0.00 0.00 0.00 77 1016.4
20260831063545 28 0 1.6 12.9 0.00 0.00 0.00 77 1016.5
20260831063112 28 67 0.0 14.5 0.00 0.00 0.00 77 1016.5
20260831062549 28 54 1.6 14.5 0.00 0.00 0.00 76 1016.5
20260831062047 28 68 1.6 9.7 0.00 0.00 0.00 76 1016.4
20260831061558 28 0 1.6 6.4 0.00 0.00 0.00 76 1016.3
20260831061047 28 68 1.6 9.7 0.00 0.00 0.00 75 1016.4
20260831060546 28 0 1.6 9.7 0.00 0.00 0.00 75 1016.4
20260831060104 28 58 1.6 12.9 0.00 0.00 0.00 75 1016.4
20260831055546 28 61 1.6 14.5 0.00 0.00 0.00 75 1016.3
20260831055046 28 63 4.8 14.5 0.00 0.00 0.00 74 1016.2
20260831054605 29 62 1.6 9.7 0.00 0.00 0.00 74 1016.1
20260831054046 29 0 1.6 9.7 0.00 0.00 0.00 74 1016.0
20260831053546 29 60 0.0 9.7 0.00 0.00 0.00 73 1015.9
20260831053117 29 53 1.6 9.7 0.00 0.00 0.00 73 1016.0
20260831052547 29 0 0.0 11.3 0.00 0.00 0.00 72 1016.0
20260831052045 29 61 3.2 16.1 0.00 0.00 0.00 72 1015.9
20260831051559 29 67 0.0 16.1 0.00 0.00 0.00 71 1015.8
20260831051045 30 62 1.6 12.9 0.00 0.00 0.00 71 1015.8
20260831050546 30 66 1.6 12.9 0.00 0.00 0.00 70 1015.9
20260831050115 30 57 3.2 11.3 0.00 0.00 0.00 69 1015.8
20260831045546 30 0 1.6 9.7 0.00 0.00 0.00 69 1015.9
20260831045046 30 0 0.0 9.7 0.00 0.00 0.00 68 1015.7
20260831044602 30 56 1.6 9.7 0.00 0.00 0.00 68 1015.8
20260831044046 30 61 0.0 9.7 0.00 0.00 0.00 67 1015.8
20260831043546 30 0 1.6 9.7 0.00 0.00 0.00 67 1015.8
20260831043059 30 0 0.0 12.9 0.00 0.00 0.00 66 1015.7
20260831042546 30 70 1.6 12.9 0.00 0.00 0.00 66 1015.7
20260831042046 30 70 1.6 11.3 0.00 0.00 0.00 65 1015.8
20260831041617 30 56 1.6 11.3 0.00 0.00 0.00 65 1015.7
20260831041046 31 0 0.0 11.3 0.00 0.00 0.00 64 1015.9
20260831040546 31 62 1.6 9.7 0.00 0.00 0.00 64 1015.8
20260831040057 31 0 0.0 9.7 0.00 0.00 0.00 64 1015.8
20260831035545 31 64 0.0 14.5 0.00 0.00 0.00 63 1015.7
20260831035045 31 0 1.6 14.5 0.00 0.00 0.00 63 1015.7
20260831034600 31 50 0.0 16.1 0.00 0.00 0.00 63 1015.6
20260831034045 31 0 0.0 16.1 0.00 0.00 0.00 62 1015.5
20260831033545 31 0 0.0 12.9 0.00 0.00 0.00 62 1015.5
20260831033112 31 0 1.6 12.9 0.00 0.00 0.00 62 1015.4
20260831032545 31 0 1.6 11.3 0.00 0.00 0.00 62 1015.4
20260831032048 31 60 1.6 11.3 0.00 0.00 0.00 61 1015.3
20260831031556 31 58 3.2 11.3 0.00 0.00 0.00 61 1015.2
20260831031047 31 0 0.0 6.4 0.00 0.00 0.00 61 1015.2
20260831030548 31 0 1.6 4.8 0.00 0.00 0.00 61 1015.0
20260831030107 31 0 0.0 4.8 0.00 0.00 0.00 61 1014.9
20260831025548 31 0 0.0 12.9 0.00 0.00 0.00 61 1014.9
20260831025049 32 0 1.6 12.9 0.00 0.00 0.00 61 1014.9
20260831024604 32 73 0.0 4.8 0.00 0.00 0.00 61 1014.7
20260831024049 32 73 0.0 9.7 0.00 0.00 0.00 61 1014.6
20260831023548 32 0 0.0 9.7 0.00 0.00 0.00 61 1014.6
20260831023104 32 68 1.6 9.7 0.00 0.00 0.00 60 1014.5
20260831022547 32 76 0.0 4.8 0.00 0.00 0.00 60 1014.3
20260831022047 32 103 0.0 4.8 0.00 0.00 0.00 60 1014.4
20260831021605 32 55 0.0 12.9 0.00 0.00 0.00 59 1014.2
20260831021048 32 52 3.2 12.9 0.00 0.00 0.00 59 1014.1
20260831020549 32 0 0.0 11.3 0.00 0.00 0.00 58 1014.1
20260831015547 32 0 0.0 9.7 0.00 0.00 0.00 57 1014.0
20260831015047 33 0 3.2 12.9 0.00 0.00 0.00 56 1013.9
20260831014603 33 80 1.6 12.9 0.00 0.00 0.00 54 1013.8
20260831014048 33 74 1.6 6.4 0.00 0.00 0.00 52 1013.7
20260831013547 33 66 0.0 3.2 0.00 0.00 0.00 51 1013.5
20260831013058 33 0 0.0 0.0 0.00 0.00 0.00 52 1013.4
20260831012547 33 0 0.0 0.0 0.00 0.00 0.00 51 1013.4
20260831012047 33 0 0.0 3.2 0.00 0.00 0.00 50 1013.3
20260831011549 33 0 0.0 3.2 0.00 0.00 0.00 50 1013.4
20260831011047 33 0 0.0 3.2 0.00 0.00 0.00 49 1013.3
20260831010547 33 0 0.0 3.2 0.00 0.00 0.00 50 1013.3
20260831010110 33 0 0.0 3.2 0.00 0.00 0.00 49 1013.3
20260831005547 33 0 0.0 3.2 0.00 0.00 0.00 48 1013.3
20260831005047 33 0 0.0 1.6 0.00 0.00 0.00 49 1013.2
20260831004603 33 0 0.0 1.6 0.00 0.00 0.00 48 1013.2
20260831004048 33 0 0.0 1.6 0.00 0.00 0.00 48 1013.1
20260831003548 34 0 0.0 1.6 0.00 0.00 0.00 48 1013.1
20260831003104 34 0 0.0 1.6 0.00 0.00 0.00 48 1013.2
20260831002547 34 0 0.0 3.2 0.00 0.00 0.00 49 1013.1
20260831002047 34 0 0.0 3.2 0.00 0.00 0.00 48 1013.1
20260831001559 34 0 0.0 3.2 0.00 0.00 0.00 48 1013.1
20260831001047 34 0 0.0 4.8 0.00 0.00 0.00 48 1013.1
20260831000546 34 0 0.0 4.8 0.00 0.00 0.00 48 1013.0
20260831000054 35 66 0.0 4.8 0.00 0.00 0.00 48 1013.1
20260830235545 35 0 0.0 6.4 0.00 0.00 0.00 47 1013.1
20260830235047 35 68 0.0 8.0 0.00 0.00 0.00 46 1013.1
20260830234607 35 105 1.6 8.0 0.00 0.00 0.00 46 1013.1
20260830234045 35 130 0.0 4.8 0.00 0.00 0.00 46 1013.2
20260830233545 35 0 0.0 9.7 0.00 0.00 0.00 47 1013.1
20260830233057 35 161 1.6 9.7 0.00 0.00 0.00 47 1013.2
20260830232545 35 0 0.0 4.8 0.00 0.00 0.00 46 1013.1
20260830232045 35 0 0.0 4.8 0.00 0.00 0.00 46 1013.1
20260830231604 35 0 0.0 4.8 0.00 0.00 0.00 45 1013.1
20260830231045 35 54 0.0 6.4 0.00 0.00 0.00 44 1013.1
20260830230546 35 0 0.0 11.3 0.00 0.00 0.00 45 1013.2
20260830230053 36 55 0.0 11.3 0.00 0.00 0.00 45 1013.1
20260830225546 36 54 1.6 11.3 0.00 0.00 0.00 44 1013.1
20260830225046 36 59 1.6 6.4 0.00 0.00 0.00 45 1013.2
20260830224608 36 64 0.0 6.4 0.00 0.00 0.00 44 1013.3
20260830224049 36 0 0.0 6.4 0.00 0.00 0.00 44 1013.3
20260830223546 36 0 0.0 6.4 0.00 0.00 0.00 46 1013.3
20260830223056 36 71 0.0 6.4 0.00 0.00 0.00 44 1013.3
20260830222549 36 68 1.6 6.4 0.00 0.00 0.00 45 1013.3
20260830222045 36 65 1.6 4.8 0.00 0.00 0.00 44 1013.3
20260830221606 36 0 0.0 4.8 0.00 0.00 0.00 45 1013.3
20260830221046 36 65 0.0 9.7 0.00 0.00 0.00 45 1013.4
20260830220546 36 64 0.0 9.7 0.00 0.00 0.00 44 1013.4
20260830220101 36 0 1.6 9.7 0.00 0.00 0.00 45 1013.4
20260830215545 36 74 1.6 9.7 0.00 0.00 0.00 45 1013.6
20260830215048 36 0 1.6 9.7 0.00 0.00 0.00 46 1013.5
20260830214556 36 66 1.6 9.7 0.00 0.00 0.00 44 1013.7
20260830214045 36 75 0.0 6.4 0.00 0.00 0.00 45 1013.7
20260830213546 36 0 1.6 6.4 0.00 0.00 0.00 48 1013.7
20260830213102 36 0 0.0 9.7 0.00 0.00 0.00 49 1013.8
20260830212545 36 0 1.6 11.3 0.00 0.00 0.00 47 1013.8
20260830212046 35 0 3.2 11.3 0.00 0.00 0.00 47 1013.9
20260830211601 35 0 0.0 4.8 0.00 0.00 0.00 48 1014.1
20260830211046 35 0 0.0 9.7 0.00 0.00 0.00 46 1014.1
20260830210546 35 0 0.0 9.7 0.00 0.00 0.00 47 1014.3
20260830210139 35 0 1.6 4.8 0.00 0.00 0.00 49 1014.4
20260830205547 35 0 1.6 6.4 0.00 0.00 0.00 48 1014.4
20260830205046 35 0 1.6 6.4 0.00 0.00 0.00 49 1014.4
20260830204611 36 58 0.0 11.3 0.00 0.00 0.00 48 1014.6
20260830204046 35 0 1.6 12.9 0.00 0.00 0.00 51 1014.7
20260830203546 35 64 1.6 12.9 0.00 0.00 0.00 50 1014.7
20260830203104 35 72 1.6 11.3 0.00 0.00 0.00 50 1014.8
20260830202546 35 60 1.6 11.3 0.00 0.00 0.00 50 1014.8
20260830202046 35 60 3.2 12.9 0.00 0.00 0.00 50 1014.9
20260830201603 35 0 1.6 12.9 0.00 0.00 0.00 51 1014.9
20260830201045 35 0 4.8 12.9 0.00 0.00 0.00 51 1015.0
20260830200545 35 62 1.6 9.7 0.00 0.00 0.00 52 1015.1
20260830200114 35 0 1.6 6.4 0.00 0.00 0.00 52 1015.1
20260830195545 35 58 0.0 9.7 0.00 0.00 0.00 53 1015.3
20260830195046 35 0 0.0 9.7 0.00 0.00 0.00 52 1015.3
20260830194628 35 60 3.2 11.3 0.00 0.00 0.00 52 1015.4